#timestamp,LO_Frequency,Hit,StdDev 
1561262415.6,286047001.4,N
1561262435.4,286047002.7,N
1561262455.3,286047005.4,N
1561262475.1,286047010.0,Y
1561262495.9,286047004.7,P
1561262515.7,286047009.1,P
1561262535.5,286047008.8,N
1561262555.4,286047008.8,N
1561262575.2,286047010.0,Y
1561262595.1,286047006.4,P
1561262596.0,286047006.4,P
1561262615.8,286047004.7,P
1561262635.6,286047010.1,Y
1561262655.5,286047006.4,P
1561262675.3,286047010.7,P
1561262695.2,286047009.9,P
1561262715.9,286047018.1,Y
1561262735.7,286047011.8,P
1561262755.6,286047007.4,P
1561262775.4,286047015.3,P
1561262795.2,286047015.5,Y
1561262815.1,286047004.7,P
1561262816.0,286047004.7,N
1561262835.8,286047010.6,P
1561262855.7,286047008.3,N
1561262875.5,286047006.3,N
1561262895.3,286047003.9,N
1561262915.2,286047007.2,N
1561262935.0,286046998.4,N
1561262935.9,286046998.4,N
1561262955.8,286046997.6,N
1561262975.6,286046996.1,N
1561262995.4,286046991.0,N
1561263015.3,286046986.8,N
1561263035.1,286046984.3,N
1561263055.8,286046983.6,N
1561263075.7,286046977.8,N
1561263095.5,286046976.2,N
1561263115.4,286046979.7,N
1561263135.2,286046978.4,N
1561263155.0,286046979.9,N
1561263155.9,286046979.9,N
1561263175.8,286046977.6,N
1561263195.6,286046980.3,N
1561263215.5,286046981.8,N
1561263235.3,286046978.2,N
1561263255.1,286046974.5,N
1561263275.9,286046977.8,N
1561263295.7,286046983.1,N
1561263315.5,286046980.0,N
1561263335.4,286046976.9,N
1561263355.2,286046977.5,N
1561263375.1,286046975.9,N
1561263376.0,286046975.9,N
1561263395.8,286046975.8,N
1561263415.6,286046975.9,N
1561263435.5,286046974.1,N
1561263455.3,286046980.3,N
1561263475.2,286046979.2,N
1561263495.9,286046980.5,Y
1561263515.7,286047005.8,P
1561263535.6,286047002.3,N
1561263555.4,286047000.9,N
1561263575.2,286046998.6,N
1561263595.1,286046998.9,N
1561263596.0,286046998.9,N
1561263615.8,286046999.2,N
1561263635.7,286046995.0,N
1561263655.5,286046995.3,N
1561263675.3,286046996.0,N
1561263695.2,286046995.9,N
1561263715.0,286046994.5,N
1561263715.9,286046994.5,N
1561263735.8,286046991.9,N
1561263755.6,286046993.0,N
1561263775.4,286046998.0,N
1561263795.3,286046996.8,N
1561263815.1,286047001.0,N
1561263835.8,286046996.5,N
1561263855.7,286046997.1,N
1561263875.5,286046996.3,N
1561263895.4,286046996.4,N
1561263915.2,286046993.4,N
1561263935.0,286046992.4,N
1561263935.9,286046992.4,N
1561263955.8,286046990.6,N
1561263975.6,286046990.3,N
1561263995.4,286046991.4,N
1561264015.3,286046993.0,N
1561264035.1,286046990.9,N
1561264055.9,286046993.8,N
1561264075.7,286046992.7,N
1561264095.5,286046992.5,N
1561264115.4,286046996.0,N
1561264135.2,286046999.4,N
1561264155.1,286046993.3,N
1561264156.0,286046993.3,N
1561264175.8,286046992.4,N
1561264195.6,286046988.9,Y
1561264215.5,286046999.8,P
1561264235.3,286047003.7,N
1561264255.1,286047009.9,N
1561264275.9,286047003.6,N
1561264295.7,286046998.3,N
1561264315.6,286046997.5,N
1561264335.4,286047000.0,N
1561264355.2,286047001.4,N
1561264375.1,286047000.2,N
1561264376.0,286047000.2,N
1561264395.8,286047004.4,N
1561264415.7,286047004.7,N
1561264435.5,286047001.7,N
1561264455.3,286047003.4,N
1561264475.2,286047010.2,N
1561264495.0,286047013.8,Y
1561264495.9,286047013.8,P
1561264515.8,286047012.7,N
1561264535.6,286047021.4,P
1561264555.4,286047028.4,Y
1561264575.3,286047015.7,P
1561264595.1,286047020.0,P
1561264615.8,286047021.9,P
1561264635.7,286047018.4,Y
1561264655.5,286046999.7,P
1561264675.4,286047005.3,N
1561264695.2,286047007.3,N
1561264715.0,286047009.2,N
1561264715.9,286047009.2,N
1561264735.8,286047011.7,N
1561264755.6,286047011.4,N
1561264775.5,286047010.5,N
1561264795.3,286047006.2,N
1561264815.1,286047005.6,N
1561264835.9,286047003.9,N
1561264855.7,286047004.8,N
1561264875.6,286047003.1,N
1561264895.4,286046998.9,N
1561264915.2,286046995.5,N
1561264935.1,286046988.3,N
1561264936.0,286046988.3,N
1561264955.8,286046982.0,N
1561264975.6,286046975.8,N
1561264995.5,286046979.7,N
1561265015.3,286046980.8,N
1561265035.2,286046986.2,N
1561265055.9,286046992.9,N
1561265075.7,286046992.4,N
1561265095.6,286046991.2,N
1561265115.4,286046992.7,N
1561265135.2,286046994.6,N
1561265155.1,286046996.4,N
1561265156.0,286046996.4,N
1561265175.8,286046992.6,N
1561265195.7,286046992.1,N
1561265215.5,286046990.8,N
1561265235.3,286046994.2,N
1561265255.2,286046997.7,N
1561265275.0,286046996.6,N
1561265275.9,286046996.6,N
1561265295.8,286047000.7,N
1561265315.6,286046999.5,N
1561265335.4,286046994.6,N
1561265355.3,286046988.9,N
1561265375.1,286046989.6,N
1561265395.8,286046989.4,N
1561265415.7,286046988.1,N
1561265435.5,286046983.4,N
1561265455.4,286046980.0,Y
1561265475.2,286046983.0,P
1561265495.0,286046980.2,P
1561265495.9,286046980.2,P
1561265515.8,286046976.3,Y
1561265535.6,286046991.9,P
1561265555.5,286046990.4,N
1561265575.3,286046992.7,N
1561265595.1,286046995.0,N
1561265615.9,286046994.7,N
1561265635.7,286046992.2,N
1561265655.5,286046994.6,N
1561265675.4,286046989.6,N
1561265695.2,286046987.5,Y
1561265715.1,286046995.9,P
1561265716.0,286046995.9,N
1561265735.8,286046995.1,N
1561265755.6,286046996.3,N
1561265775.5,286046994.6,Y
1561265795.3,286046998.5,P
1561265815.2,286046998.7,N
1561265835.0,286046996.6,N
1561265835.9,286046996.6,N
1561265855.8,286047000.9,N
1561265875.6,286047002.4,N
1561265895.4,286047003.6,N
1561265915.3,286047010.0,Y
1561265935.1,286047019.8,P
1561265955.9,286047028.2,N
1561265975.7,286047030.2,N
1561265995.5,286047035.3,N
